Regional Weather Roundup
Issued by NWS State College, PA

Home | Current Version | Previous Version | Graphics & Text | Print | Product List | Glossary On
Versions: 1 2 3 4 5 6 7 8 9 10 11 12 13 14 15 16 17 18 19 20 21 22 23 24 25 26 27 28 29 30 31 32 33 34 35 36 37 38 39 40 41 42 43 44 45 46 47 48 49 50
336
ASUS41 KCTP 261810
RWRCTP

REGIONAL WEATHER ROUNDUP
NATIONAL WEATHER SERVICE STATE COLLEGE PA
200 PM EDT MON JUN 26 2017

Note: "fair" indicates few or no clouds below 12,000 feet with no
significant weather and/or obstructions to visibility.

* = STATION THAT DOES NOT REPORT PRECIPITATION /E.G. RAIN...SNOW...ETC/
    THUNDER OR FOG.

PAZ002>004-007>009-013>016-020>023-029>032-261900-
WESTERN PENNSYLVANIA

CITY           SKY/WX    TMP DP  RH WIND       PRES   REMARKS
ERIE           LGT RAIN  65  55  70 SW14G20   30.01S
MEADVILLE      RAIN      56  54  93 NW8       30.05R FOG
FRANKLIN*      CLOUDY    70  48  46 SW13G22   30.03F
NEW CASTLE     CLOUDY    69  49  48 SW12G17   30.04F
BEAVER COUNTY  PTSUNNY   73  50  43 SW13G21   30.05F
BUTLER*        MOSUNNY   70  48  46 SW10G20   30.05S
PITTSBURGH INT PTSUNNY   70  46  42 SW13      30.05F
PITTSBURGH     PTSUNNY   71  45  39 SW14G21   30.05F
INDIANA*       MOSUNNY   72  48  43 W12G22    30.08F
LATROBE        PTSUNNY   68  48  49 W12G23    30.07F
WASHINGTON CO* MOSUNNY   72  48  43 W12G20    30.09S
$$

PAZ004>006-010>012-017>019-024>028-033>037-041-042-045-046-049>053-261900-
CENTRAL PENNSYLVANIA

CITY           SKY/WX    TMP DP  RH WIND       PRES   REMARKS
BRADFORD       CLOUDY    66  46  48 SW10      30.02F
DUBOIS         PTSUNNY   68  45  43 SW15      30.03F
CLEARFIELD     CLOUDY    69  47  45 W6        30.05F
JOHNSTOWN      MOSUNNY   67  47  48 SW10      30.08F
ALTOONA        PTSUNNY   72  47  40 W12       30.07F
STATE COLLEGE  MOSUNNY   72  48  43 SW12      30.04F
WILLIAMSPORT   MOSUNNY   77  48  35 W9G17     30.00F
SELINSGROVE    MOSUNNY   75  48  38 VRB5G16   30.03
FT INDIANTOWN  MOSUNNY   76  46  33 SW10      30.03F
CAPITAL CITY   PTSUNNY   75  45  33 SW7G17    30.04F
HARRISBURG     PTSUNNY   76  48  37 SW8       30.03F
YORK           MOSUNNY   74  49  41 W7        30.05
$$

PAZ038>040-043-044-047-048-054-055-060>062-067>071-261900-
EASTERN PENNSYLVANIA

CITY           SKY/WX    TMP DP  RH WIND       PRES   REMARKS
SCRANTON       MOSUNNY   76  48  37 W15       30.01
MOUNT POCONO   MOSUNNY   69  41  36 W12       30.04
ALLENTOWN      NOT AVBL
QUAKERTOWN*    PTCLDY    75  48  38 SW6       30.04F
READING        MOSUNNY   78  50  37 W12       30.02
LANCASTER      MOSUNNY   77  49  37 W10       30.04F
COATESVILLE    PTCLDY    73  46  38 SW7       30.06F
POTTSTOWN      PTSUNNY   76  47  35 SW9       30.05
BLUE BELL      MOSUNNY   73  48  40 SW6       30.04F
DOYLESTOWN     MOSUNNY   78  47  33 SW9       30.02
WILLOW GROVE   NOT AVBL
NORTH PHILA    SUNNY     78  48  34 W8        30.04F
PHILADELPHIA   MOSUNNY   79  46  31 VRB5      30.03F
$$




USA.gov is the U.S. government's official web portal to all federal, state and local government web resources and services.